Hauptseite
METAR-TAF:

METAR-TAF

Flughäfen :

Flugplatz Turin-Aeritalia

Turin, Italien

Breite: 45-05-20N, Länge: 007-36-20E, Höhe: 288 m

Beobachtung

Neuester Wetterbericht von vor 9 Stunden und 27 Minuten, um 16:50 UTC
Wind 4 kt aus West, variierte zwischen Südwest und West/Nordwest
Temperatur 27°C
Luftfeuchtigkeit 45%
Luftdruck 1015 hPa
Sichtweite 10 km oder mehr
keine Wolken unter 1500 m und keine Kumulonimbus oder Gewitterwolken

METAR: LIMA 251650Z 26004KT 230V290 CAVOK 27/14 Q1015

Zeit: 04:17 (02:17 UTC)


TAF: fehlend

Wetterbeobachtungen und Prognosen von mehr als 4000 Flughäfen (METAR und TAF Bericht).

Die verfügbaren Stationen werden durch gelbe und rote Markierungen auf der Karte dargestellt.

Führen Sie die Maus auf sie, um den Namen der Station zu sehen.

Darauf klicken, um die Beobachtung von Wetterbeobachtungen und Prognosen zu sehen.

Um die Karte zu ändern : klicken Sie auf den grünen Tasten mit einem schwarzen Kreuz Zum Vergrößern, auf den grünen Button mit einem Gedankenstrich zu verkleinern, oder auf die grünen Pfeile für benachbarte Karten.


METAR-TAF: